Regional Weather Roundup
Issued by NWS

Home | Current Version | Previous Version | Text Only | Print | Product List | Glossary Off
Versions: 1 2 3 4 5 6 7 8 9 10 11 12 13 14 15 16 17 18 19 20 21 22 23 24 25 26 27 28 29 30 31 32 33 34 35 36 37 38 39 40 41 42 43 44 45 46 47 48 49 50

000
ASUS45 KTFX 131010
RWRMT
MONTANA REGIONAL WEATHER ROUNDUP
NATIONAL WEATHER SERVICE GREAT FALLS MT
300 AM MST SAT FEB 13 2016

NOTE: "FAIR" INDICATES FEW OR NO CLOUDS BELOW 12000 FEET WITH NO
SIGNIFICANT WEATHER AND/OR OBSTRUCTIONS TO VISIBILITY.

MTZ001>007-043-131100-
WEST OF THE DIVIDE

CITY           SKY/WX    TMP DP  RH WIND       PRES   REMARKS
KALISPELL      CLOUDY    35  35 100 SW6       30.00S WCI  30
MISSOULA       CLOUDY    38  38 100 N10       30.06R WCI  31
BUTTE          CLOUDY    27  23  85 CALM      29.99F
MULLAN PASS    LGT SNOW  28  27  96 VRB7      30.02S FOG     WCI  21
ANACONDA         N/A     41  28  60 SE13G18   29.96F
DEER LODGE       N/A     34  32  93 CALM      29.96F
HAMILTON         N/A     37  37 100 E10       30.05R WCI  30
PLAINS           N/A     40  37  89 MISG      30.06S
THOMPSON FALLS   N/A     40  38  93 W2        30.12F
$$

MTZ008-052>055-131100-
SOUTHWEST MONTANA

CITY           SKY/WX    TMP DP  RH WIND       PRES   REMARKS
BOZEMAN        CLOUDY    32  29  88 CALM      30.00F
DILLON         CLOUDY    34  24  67 S9        30.02F WCI  27
ENNIS          MOCLDY    41  21  45 S16       30.09F
TWIN BRIDGES     N/A     34  24  67 E7        30.01F WCI  28
$$

MTZ009-010-012-014-046-048-049-054-131100-
EAST SLOPES AND CENTRAL MONTANA

CITY           SKY/WX    TMP DP  RH WIND       PRES   REMARKS
CUT BANK       CLOUDY    41  33  73 SW10      29.85F
GREAT FALLS    CLEAR     41  30  65 S8        29.86F
MALMSTROM AFB  CLEAR     35  30  82 N1        29.88F
HELENA         CLOUDY    32  29  88 NW3       29.95F
CHOTEAU          N/A     48  32  53 S8        29.86R
CONRAD           N/A     26  26 100 CALM      29.89F
$$

MTZ011-013-016-021-045-047-050-051-131100-
NORTH CENTRAL MONTANA

CITY           SKY/WX    TMP DP  RH WIND       PRES   REMARKS
HAVRE          FOG       23  22  96 CALM      29.92F VSB 1/2
LEWISTOWN      CLOUDY    41  31  67 CALM      29.91F
N BAR RANCH      N/A     36  30  80 NW6       29.94F WCI  31
CHINOOK          N/A     25  25 100 E8        29.93F WCI  16
$$

MTZ017>020-022>027-061-062-131100-
NORTHEAST MONTANA

CITY           SKY/WX    TMP DP  RH WIND       PRES   REMARKS
GLASGOW        CLOUDY    18  13  80 E18       30.00F WCI   2
JORDAN           N/A     28  25  88 SE6       29.96F WCI  22
SIDNEY         CLOUDY    18  12  79 SE13      30.15F WCI   4
WOLF POINT     CLEAR     18  13  80 NE12      30.08F WCI   5
PLENTYWOOD       N/A     12   9  85 SE15G21   30.11F WCI  -4
POPLAR           N/A     18  12  79 E13       30.09F WCI   4
SCOBEY           N/A     14   2  59 SE20      30.03F WCI  -3
$$

MTZ028>42-056>058-131100-
SOUTHCENTRAL AND SOUTHEAST MONTANA

CITY           SKY/WX    TMP DP  RH WIND       PRES   REMARKS
BAKER          CLOUDY    20  16  84 SE23G30   30.07F WCI   3
BILLINGS       CLOUDY    32  29  88 SW7       29.96F WCI  26
LIVINGSTON     CLOUDY    49  20  31 SW33G46   29.96F
MILES CITY     CLOUDY    29  24  82 SE13      30.00F WCI  19
EKALAKA          N/A     22  18  85 SE22      29.97F WCI   6
FORSYTH          N/A     28  27  93 E6        29.97F WCI  22
LAUREL           N/A     30  17  58 CALM      29.95F
ROUNDUP          N/A     34  27  76 S7        29.86F WCI  28
$$

REGIONAL REPORTS...DAKOTAS

CITY           SKY/WX    TMP DP  RH WIND       PRES   REMARKS
WILLISTON      LGT SNOW  13   8  81 SE14G20   30.19F WCI  -2
MINOT          CLOUDY     8  -5  55 SE15      30.33F WCI  -9
DICKINSON      CLOUDY    11   7  84 SE21G29   30.14F WCI  -8
BEACH          CLOUDY    18  18 100 SE18G31   30.10F WCI   2
CROSBY         LGT SNOW  12   9  85 SE15G21   30.20F WCI  -4
TIOGA          CLOUDY     9   9 100 SE22      30.24F FOG     WCI -11
WATFORD CITY   CLOUDY    10   7  85 SE13      30.19F WCI  -5
BISMARCK       CLOUDY     9  -1  64 SE15      30.38F WCI  -8
GRAND FORKS    CLOUDY    -8 -14  74 S5        30.61F
FARGO          CLOUDY    -7 -12  79 SE3       30.63F
BUFFALO SD       N/A     20  17  88 SE16      30.04F WCI   6
RAPID CITY     CLOUDY    27  24  89 SE14      30.10F WCI  16
$$

REGIONAL REPORTS...WYOMING/IDAHO/WASHINGTON

CITY           SKY/WX    TMP DP  RH WIND       PRES   REMARKS
GILLETTE       CLOUDY    29  27  92 S14       30.00F WCI  18
SHERIDAN       CLOUDY    29  25  85 NW5       29.96F
BUFFALO WY     CLOUDY    41  24  51 SW3       29.98F
CODY           CLOUDY    52  25  35 SW5       30.01F
YELLOWSTONE LA   N/A     29  20  69 CALM      30.18F
IDAHO FALLS    CLOUDY    24  21  88 N5        30.18R
SALMON         CLOUDY    28  27  93 E6        30.09F WCI  22
BOISE          PTCLDY    34  32  92 CALM      30.21R FOG
SPOKANE        MOCLDY    42  39  89 SW18      30.10R
$$

REGIONAL REPORTS...ALBERTA

CITY           SKY/WX    TMP DP  RH WIND       PRES   REMARKS
EDMONTON       CLOUDY    18  14  86 SE2       29.80F
CALGARY        PTCLDY    37  30  75 NW8G20    29.71F WCI  31
LETHBRIDGE     CLOUDY    45  34  65 SW15G22   29.75F
MEDICINE HAT   PTCLDY    39  32  75 SW15      29.76F WCI  31
WATERTON GATE    N/A     39  28  65 SW21G31     N/A  WCI  29
MILK RIVER       N/A     34  32  93 S13         N/A  WCI  25
$$

REGIONAL REPORTS...SASKATCHEWAN

CITY           SKY/WX    TMP DP  RH WIND       PRES   REMARKS
SWIFT CURRENT  LGT SNOW  19  18  93 S20G31    29.86F WCI   4
REGINA         FLURRIES   9   3  78 SE25G33   30.11F WCI -13
SASKATOON      CLOUDY    12   9  85 SE18      30.00F WCI  -5
CYPRESS HILLS    N/A     19  16  86 S2          N/A
VAL MARIE        N/A     19  18  93 SE12        N/A  WCI   7
ROCKGLEN         N/A     12  10  92 S17G24      N/A  WCI  -5
ASSINIBOIA       N/A     16  14  93 SE5         N/A
$$



USA.gov is the U.S. government's official web portal to all federal, state and local government web resources and services.